When you browse on this site, cookies collect data to enhance your experience and personalize the content and advertising you see.
Visit our Privacy Policy to learn more. By continuing to use the site, you agree to this use of cookies and data.
  • en Belgique
  • Liste des pays
  • À 7 jours
  • Température de l'eau
  • Carte satellitaire
  • Carte météo
  • Widgets météo
  • user-avatar
    Se connecter

    Météo par heure à Derry

    Ce jour, 21 Janvier, Lundi

    Heure Température Précipitation Vent Pression Humidité
    00:00 +1°C° 0 mm 2 m/s 761 mmHg 83%
    01:00 +1°C° 0 mm 2 m/s 761 mmHg 84%
    02:00 +1°C° 0 mm 2 m/s 760 mmHg 85%
    03:00 +1°C° 0 mm 2 m/s 760 mmHg 85%
    04:00 0°C° 0 mm 3 m/s 759 mmHg 85%
    05:00 0°C° 0 mm 3 m/s 758 mmHg 85%
    06:00 0°C° 0 mm 3 m/s 758 mmHg 84%
    07:00 0°C° 0 mm 4 m/s 757 mmHg 84%
    08:00 0°C° 0 mm 4 m/s 756 mmHg 84%
    09:00 0°C° 0 mm 4 m/s 755 mmHg 84%
    10:00 +1°C° 0.1 mm 5 m/s 753 mmHg 83%
    11:00 +2°C° 0.1 mm 6 m/s 752 mmHg 82%
    12:00 +2°C° 0.1 mm 7 m/s 750 mmHg 81%
    13:00 +3°C° 0.4 mm 7 m/s 749 mmHg 82%
    14:00 +2°C° 0.4 mm 8 m/s 747 mmHg 83%
    15:00 +2°C° 0.4 mm 8 m/s 746 mmHg 84%
    16:00 +3°C° 1.1 mm 7 m/s 745 mmHg 83%
    17:00 +2°C° 1.1 mm 6 m/s 745 mmHg 82%
    18:00 +1°C° 1.1 mm 5 m/s 744 mmHg 80%
    19:00 +1°C° 0 mm 5 m/s 744 mmHg 79%
    20:00 0°C° 0 mm 5 m/s 744 mmHg 78%
    21:00 0°C° 0 mm 5 m/s 745 mmHg 77%
    22:00 0°C° 0.2 mm 5 m/s 745 mmHg 76%
    23:00 0°C° 0.2 mm 5 m/s 745 mmHg 76%

    Demain, 22 Janvier, Mardi

    Heure Température Précipitation Vent Pression Humidité
    00:00 0°C° 0.2 mm 5 m/s 745 mmHg 75%
    01:00 0°C° 0.1 mm 4 m/s 744 mmHg 77%
    02:00 -1°C° 0.1 mm 4 m/s 744 mmHg 79%
    03:00 0°C° 0.1 mm 3 m/s 743 mmHg 81%
    04:00 0°C° 0.4 mm 3 m/s 743 mmHg 82%
    05:00 0°C° 0.4 mm 3 m/s 743 mmHg 83%
    06:00 -1°C° 0.4 mm 4 m/s 742 mmHg 84%
    07:00 -1°C° 0.2 mm 4 m/s 742 mmHg 82%
    08:00 -1°C° 0.2 mm 4 m/s 742 mmHg 79%
    09:00 -1°C° 0.2 mm 4 m/s 743 mmHg 77%
    10:00 0°C° 0.2 mm 4 m/s 743 mmHg 75%
    11:00 0°C° 0.2 mm 4 m/s 743 mmHg 74%
    12:00 0°C° 0.2 mm 4 m/s 743 mmHg 72%
    13:00 0°C° 0.1 mm 4 m/s 743 mmHg 73%
    14:00 0°C° 0.1 mm 4 m/s 743 mmHg 73%
    15:00 0°C° 0.1 mm 4 m/s 743 mmHg 73%
    16:00 0°C° 0 mm 4 m/s 743 mmHg 76%
    17:00 0°C° 0 mm 3 m/s 743 mmHg 78%
    18:00 -1°C° 0 mm 3 m/s 743 mmHg 80%
    19:00 0°C° 0 mm 3 m/s 743 mmHg 81%
    20:00 0°C° 0 mm 3 m/s 744 mmHg 81%
    21:00 0°C° 0 mm 3 m/s 744 mmHg 82%
    22:00 0°C° 0.1 mm 3 m/s 744 mmHg 82%
    23:00 0°C° 0.1 mm 3 m/s 744 mmHg 83%

    Après-demain, 23 Janvier, Mercredi

    Heure Température Précipitation Vent Pression Humidité
    00:00 +1°C° 0.1 mm 2 m/s 745 mmHg 83%
    01:00 +1°C° 0.1 mm 2 m/s 745 mmHg 83%
    02:00 +1°C° 0.1 mm 2 m/s 745 mmHg 83%
    03:00 +1°C° 0.1 mm 2 m/s 746 mmHg 83%
    04:00 +1°C° 0 mm 2 m/s 746 mmHg 84%
    05:00 +1°C° 0 mm 2 m/s 746 mmHg 84%
    06:00 +1°C° 0 mm 2 m/s 746 mmHg 85%
    07:00 +1°C° 0 mm 2 m/s 747 mmHg 85%
    08:00 +1°C° 0 mm 2 m/s 747 mmHg 85%
    09:00 +1°C° 0 mm 2 m/s 748 mmHg 86%
    10:00 +2°C° 0 mm 2 m/s 748 mmHg 85%
    11:00 +3°C° 0 mm 2 m/s 748 mmHg 84%
    12:00 +4°C° 0 mm 2 m/s 749 mmHg 84%
    13:00 +4°C° 0 mm 2 m/s 749 mmHg 84%
    14:00 +5°C° 0 mm 2 m/s 749 mmHg 85%
    15:00 +5°C° 0 mm 2 m/s 749 mmHg 85%
    16:00 +4°C° 0 mm 2 m/s 750 mmHg 88%
    17:00 +5°C° 0 mm 1 m/s 750 mmHg 90%
    18:00 +5°C° 0 mm 1 m/s 751 mmHg 93%
    19:00 +4°C° 0 mm 1 m/s 751 mmHg 94%
    20:00 +3°C° 0 mm 2 m/s 751 mmHg 95%
    21:00 +3°C° 0 mm 2 m/s 751 mmHg 96%
    22:00 +3°C° 0.2 mm 2 m/s 751 mmHg 96%
    23:00 +3°C° 0.2 mm 2 m/s 751 mmHg 96%

    24 Janvier, Jeudi

    Heure Température Précipitation Vent Pression Humidité
    00:00 +3°C° 0.2 mm 2 m/s 751 mmHg 96%
    01:00 +4°C° 0.5 mm 2 m/s 751 mmHg 96%
    02:00 +4°C° 0.5 mm 2 m/s 751 mmHg 96%
    03:00 +3°C° 0.5 mm 3 m/s 751 mmHg 96%
    04:00 +4°C° 0.3 mm 3 m/s 750 mmHg 97%
    05:00 +5°C° 0.3 mm 3 m/s 750 mmHg 97%
    06:00 +7°C° 0.3 mm 3 m/s 750 mmHg 97%
    07:00 +6°C° 0.3 mm 4 m/s 750 mmHg 97%
    08:00 +7°C° 0.3 mm 4 m/s 751 mmHg 96%
    09:00 +8°C° 0.3 mm 5 m/s 751 mmHg 96%
    10:00 +8°C° 0 mm 5 m/s 751 mmHg 95%
    11:00 +8°C° 0 mm 5 m/s 751 mmHg 94%
    12:00 +8°C° 0 mm 5 m/s 751 mmHg 93%
    13:00 +8°C° 0.3 mm 6 m/s 751 mmHg 93%
    14:00 +8°C° 0.3 mm 6 m/s 752 mmHg 94%
    15:00 +8°C° 0.3 mm 6 m/s 752 mmHg 95%
    16:00 +8°C° 0.1 mm 6 m/s 752 mmHg 95%
    17:00 +8°C° 0.1 mm 5 m/s 752 mmHg 95%
    18:00 +8°C° 0.1 mm 5 m/s 753 mmHg 95%
    19:00 +8°C° 0.1 mm 5 m/s 753 mmHg 95%
    20:00 +8°C° 0.1 mm 5 m/s 753 mmHg 95%
    21:00 +8°C° 0.1 mm 4 m/s 753 mmHg 94%
    22:00 +8°C° 0.1 mm 4 m/s 753 mmHg 94%
    23:00 +8°C° 0.1 mm 4 m/s 753 mmHg 94%

    25 Janvier, Vendredi

    Heure Température Précipitation Vent Pression Humidité
    00:00 +8°C° 0.1 mm 4 m/s 753 mmHg 94%
    01:00 +8°C° 0.1 mm 5 m/s 752 mmHg 93%
    02:00 +8°C° 0.1 mm 5 m/s 752 mmHg 92%
    03:00 +8°C° 0.1 mm 6 m/s 751 mmHg 91%
    04:00 +8°C° 0.1 mm 6 m/s 751 mmHg 91%
    05:00 +8°C° 0.1 mm 6 m/s 751 mmHg 92%
    06:00 +8°C° 0.1 mm 6 m/s 751 mmHg 92%
    07:00 +8°C° 0.6 mm 6 m/s 751 mmHg 92%
    08:00 +8°C° 0.6 mm 6 m/s 751 mmHg 92%
    09:00 +7°C° 0.6 mm 6 m/s 751 mmHg 92%
    10:00 +7°C° 0.2 mm 6 m/s 751 mmHg 89%
    11:00 +6°C° 0.2 mm 5 m/s 752 mmHg 86%
    12:00 +6°C° 0.2 mm 5 m/s 752 mmHg 83%
    13:00 +6°C° 0 mm 4 m/s 752 mmHg 81%
    14:00 +6°C° 0 mm 4 m/s 752 mmHg 79%
    15:00 +6°C° 0 mm 4 m/s 752 mmHg 78%
    16:00 +5°C° 0 mm 4 m/s 752 mmHg 79%
    17:00 +5°C° 0 mm 3 m/s 752 mmHg 81%
    18:00 +4°C° 0 mm 3 m/s 752 mmHg 83%
    19:00 +5°C° 0 mm 2 m/s 751 mmHg 84%
    20:00 +5°C° 0 mm 2 m/s 751 mmHg 86%
    21:00 +5°C° 0 mm 1 m/s 750 mmHg 87%
    22:00 +5°C° 0.5 mm 1 m/s 750 mmHg 89%
    23:00 +5°C° 0.5 mm 1 m/s 749 mmHg 91%

    26 Janvier, Samedi

    Heure Température Précipitation Vent Pression Humidité
    00:00 +5°C° 0.5 mm 1 m/s 748 mmHg 93%
    01:00 +4°C° 0.3 mm 2 m/s 747 mmHg 92%
    02:00 +3°C° 0.3 mm 3 m/s 745 mmHg 92%
    03:00 +3°C° 0.3 mm 4 m/s 744 mmHg 92%
    04:00 +3°C° 2.5 mm 4 m/s 742 mmHg 93%
    05:00 +3°C° 2.5 mm 4 m/s 740 mmHg 94%
    06:00 +3°C° 2.5 mm 4 m/s 739 mmHg 95%
    07:00 +3°C° 1.7 mm 3 m/s 738 mmHg 95%
    08:00 +4°C° 1.7 mm 3 m/s 738 mmHg 96%
    09:00 +4°C° 1.7 mm 3 m/s 737 mmHg 96%
    10:00 +3°C° 1.2 mm 5 m/s 738 mmHg 93%
    11:00 +2°C° 1.2 mm 7 m/s 739 mmHg 89%
    12:00 +1°C° 1.2 mm 10 m/s 740 mmHg 86%
    13:00 +1°C° 0.4 mm 9 m/s 741 mmHg 82%
    14:00 +1°C° 0.4 mm 8 m/s 742 mmHg 78%
    15:00 +2°C° 0.4 mm 7 m/s 743 mmHg 74%
    16:00 +2°C° 0 mm 7 m/s 744 mmHg 74%
    17:00 +1°C° 0 mm 6 m/s 745 mmHg 74%
    18:00 +1°C° 0 mm 6 m/s 746 mmHg 75%
    19:00 +1°C° 0 mm 6 m/s 746 mmHg 74%
    20:00 0°C° 0 mm 5 m/s 747 mmHg 74%
    21:00 0°C° 0 mm 5 m/s 747 mmHg 74%
    22:00 0°C° 0 mm 5 m/s 747 mmHg 75%
    23:00 0°C° 0 mm 5 m/s 747 mmHg 76%
    Voir plus